[[[{"header":{"parameterUnit":"kt","parameterCategory":2,"dx":1,"dy":1,"la1":30.253999710083008,"la2":30.299108505249023,"lo1":-89.0895004272461,"lo2":-89.04439544677734,"nx":28,"ny":28,"refTime":"2022-10-27T21:00:00:Z","depth":0,"parameterNumber":1,"parameterNumberName":"U-component_of_WINDS"},"data":[-8.7972,-8.8094,-8.8126,-8.8282,-8.8336,-8.8447,-8.8496,-8.8565,-8.8626,-8.8764,-8.8849,-8.8892,-8.8964,-8.9073,-8.9166,-8.9183,-8.9219,-8.9245,-8.9259,-8.912,-8.9102,-8.9085,-8.9056,-8.9254,-8.9254,-8.9397,-8.9398,-8.9399,-8.7881,-8.7935,-8.8026,-8.8132,-8.8211,-8.8208,-8.8292,-8.8357,-8.8456,-8.8532,-8.8615,-8.8739,-8.8839,-8.8902,-8.9004,-8.9064,-8.9065,-8.9089,-8.9082,-8.9093,-8.8947,-8.8916,-8.9087,-8.9087,-8.9087,-8.9087,-8.9087,-8.9087,-8.7722,-8.7794,-8.7874,-8.7972,-8.8033,-8.8105,-8.8179,-8.8227,-8.8315,-8.8421,-8.8438,-8.855,-8.863,-8.8762,-8.8813,-8.8902,-8.8879,-8.8913,-8.892,-8.8927,-8.8932,-8.8723,-8.8921,-8.892,-8.892,-8.892,-8.892,0,-8.7613,-8.7633,-8.7717,-8.7814,-8.7885,-8.7961,-8.8035,-8.8082,-8.8127,-8.8197,-8.8301,-8.8365,-8.8492,-8.8592,-8.8691,-8.8735,-8.873,-8.8734,-8.8756,-8.8747,-8.873,-8.8739,-8.8499,-8.8725,-8.8723,-8.8722,-8.8721,-8.8721,-8.7452,-8.7531,-8.7626,-8.7682,-8.7727,-8.7818,-8.7877,-8.791,-8.7971,-8.8067,-8.8128,-8.8229,-8.8309,-8.847,-8.8519,-8.8613,-8.861,-8.8694,-8.8623,-8.8617,-8.8609,-8.8602,-8.8611,-8.8704,-8.8706,-8.8708,-8.8709,0,-8.7359,-8.7401,-8.753,-8.7613,-8.7637,-8.7719,-8.779,-8.7862,-8.7897,-8.8002,-8.8028,-8.8082,-8.8181,-8.8218,-8.8337,-8.8353,-8.8492,-8.8489,-8.8467,-8.8467,-8.8544,-8.8535,-8.8791,-8.8826,-8.8625,-8.8627,-8.8629,0,-8.7235,-8.7336,-8.7392,-8.7464,-8.758,-8.7606,-8.772,-8.776,-8.7824,-8.7906,-8.7907,-8.7984,-8.8016,-8.81,-8.8122,-8.8242,-8.8264,-8.8282,-8.8285,-8.8279,-8.8276,-8.8305,-8.8294,-8.8292,-8.8291,-8.829,-8.8289,0,-8.708,-8.7226,-8.7345,-8.7384,-8.7478,-8.7534,-8.7576,-8.7644,-8.77,-8.7778,-8.7815,-8.7904,-8.7951,-8.8022,-8.8048,-8.7999,-8.8196,-8.8133,-8.8213,-8.8212,-8.8248,-8.8244,-8.8468,-8.8287,-8.8287,-8.8286,-8.8286,0,-8.6982,-8.7059,-8.7224,-8.7303,-8.7339,-8.7416,-8.7504,-8.7579,-8.7651,-8.7669,-8.773,-8.773,-8.7836,-8.7773,-8.792,-8.7848,-8.7897,-8.7923,-8.7929,-8.7935,-8.786,-8.7977,-8.8191,-8.8212,-8.7951,-8.7949,-8.7946,0,-8.6795,-8.6969,-8.699,-8.7145,-8.723,-8.7222,-8.731,-8.7371,-8.7402,-8.7479,-8.7513,-8.7598,-8.7557,-8.7588,-8.7658,-8.7693,-8.7788,-8.7683,-8.7792,-8.7796,-8.7771,-8.7969,-8.7988,-8.8142,-8.7911,-8.7915,-8.7917,0,-8.665,-8.6758,-8.6783,-8.6828,-8.691,-8.6978,-8.7079,-8.7168,-8.7218,-8.7285,-8.7369,-8.749,-8.7464,-8.7513,-8.752,-8.759,-8.7725,-8.755,-8.7552,-8.758,-8.7895,-8.7915,-8.794,-8.7715,-8.772,-8.7723,-8.7889,0,-8.6492,-8.658,-8.6652,-8.6743,-8.6802,-8.6898,-8.6928,-8.6986,-8.6987,-8.7013,-8.7137,-8.7189,-8.7277,-8.7313,-8.7312,-8.7461,-8.7439,-8.7408,-8.7341,-8.7472,-8.7527,-8.755,-8.7258,-8.7256,-8.7255,-8.7253,0,0,-8.63,-8.6425,-8.6438,-8.6532,-8.6581,-8.6565,-8.6666,-8.6712,-8.6801,-8.6836,-8.6801,-8.6976,-8.7018,-8.7163,-8.7207,-8.7242,-8.7271,-8.722,-8.741,-8.7427,-8.7444,-8.7502,-8.7525,-8.7251,-8.725,-8.725,-8.7249,0,-8.6244,-8.6289,-8.6387,-8.6435,-8.6505,-8.6526,-8.655,-8.6614,-8.6634,-8.6752,-8.6733,-8.681,-8.6944,-8.6993,-8.7035,-8.7207,-8.7185,-8.7232,-8.7315,-8.7394,-8.7413,-8.7431,-8.7492,-8.7514,-8.7245,-8.7246,-8.7246,0,-8.6106,-8.6154,-8.6202,-8.6309,-8.6353,-8.6437,-8.6377,-8.6466,-8.6529,-8.6499,-8.6614,-8.6646,-8.6711,-8.6843,-8.6903,-8.687,-8.7106,-8.7034,-8.7045,-8.705,-8.7127,-8.7151,-8.7172,-8.6897,-8.6896,-8.6895,0,0,-8.6054,-8.6134,-8.6189,-8.6298,-8.6328,-8.6358,-8.6404,-8.6406,-8.6463,-8.6486,-8.6523,-8.6581,-8.666,-8.6711,-8.6785,-8.6926,-8.6941,-8.699,-8.7007,-8.702,-8.7032,-8.7114,-8.7137,-8.689,-8.689,-8.689,0,0,-8.6027,-8.6095,-8.6083,-8.6213,-8.627,-8.6328,-8.6395,-8.6381,-8.645,-8.6441,-8.6446,-8.6461,-8.6585,-8.6614,-8.6545,-8.6761,-8.6696,-8.6712,-8.6736,-8.6757,-8.6773,-8.6761,-8.6485,0,0,0,0,0,-8.598,-8.6087,-8.6076,-8.6101,-8.6231,-8.6336,-8.6353,-8.6359,-8.6315,-8.6368,-8.6398,-8.637,-8.6579,-8.6519,-8.6543,-8.6617,-8.6826,-8.6837,-8.6848,-8.6911,-8.6933,-8.6952,0,0,0,0,0,0,-8.599,-8.6021,-8.6073,-8.6136,-8.6165,-8.6332,-8.6257,-8.6262,-8.6309,-8.6302,-8.6366,-8.6372,-8.6379,-8.6506,-8.6529,-8.6598,-8.6477,-8.683,-8.684,-8.6849,-8.6919,-8.6937,-8.6952,0,0,0,0,0,-8.5998,-8.6023,-8.6229,-8.6134,-8.616,-8.6195,-8.6253,-8.6256,-8.6292,-8.6335,-8.6341,-8.6293,-8.6381,-8.64,-8.6519,-8.6588,-8.6462,-8.647,-8.6836,-8.6844,-8.6851,-8.6928,0,0,0,0,0,0,-8.6004,-8.6027,-8.6234,-8.6242,-8.6092,-8.6186,-8.6201,-8.6252,-8.6322,-8.6329,-8.6262,-8.6256,-8.6384,-8.6398,-8.6413,-8.6585,-8.6449,-8.6458,-8.6463,-8.6842,-8.6848,-8.6854,0,0,0,0,0,0,-8.6014,-8.6034,-8.6238,-8.6185,-8.6187,-8.6178,-8.6191,-8.6291,-8.6323,-8.6245,-8.6243,-8.6259,-8.6361,-8.6397,-8.6408,-8.6565,-8.6439,-8.6448,-8.6453,-8.6457,-8.6847,-8.6852,0,0,0,0,0,0,-8.6022,-8.604,-8.6183,-8.6185,-8.6186,-8.6277,-8.6266,-8.6398,-8.6279,-8.6243,-8.6269,-8.6264,-8.6361,-8.6372,-8.6406,-8.6558,-8.6563,-8.644,-8.6445,-8.6449,-8.6452,0,0,0,0,0,0,0,-8.603,-8.5911,-8.6187,-8.6184,-8.6185,-8.6317,-8.6319,-8.6321,-8.6278,-8.6274,-8.627,-8.6266,-8.6393,-8.6402,-8.6411,-8.6552,0,0,-8.6439,-8.6443,0,0,0,0,0,0,0,0,-8.5904,-8.5909,-8.6187,-8.6189,-8.619,-8.6317,-8.6319,-8.6321,-8.6277,-8.6274,-8.6271,-8.6267,-8.6396,-8.6403,-8.641,0,0,0,0,0,0,0,0,0,0,0,0,0,0,0,-8.6187,-8.6188,0,-8.6317,-8.6319,-8.632,-8.6277,-8.6274,-8.6271,-8.6269,-8.6398,-8.6404,-8.641,0,0,0,0,0,0,0,0,0,0,0,0,0,0,0,0,0,0,0,0,0,0,0,0,0,0,0,0,0,0,0,0,0,0,0,0,0,0,0,0,0,0,0,0,0,0,0,0,0,0,0,0,0,0,0,0,0,0,0,0,0,0,0,0,0,0,0,0,0]}],[{"header":{"parameterUnit":"kt","parameterCategory":2,"dx":1,"dy":1,"la1":30.253999710083008,"la2":30.299108505249023,"lo1":-89.0895004272461,"lo2":-89.04439544677734,"nx":28,"ny":28,"refTime":"2022-10-27T21:00:00:Z","depth":0,"parameterNumber":2,"parameterNumberName":"V-component_of_WINDS"},"data":[1.33,1.3321,1.3407,1.347,1.3558,1.3617,1.3665,1.3737,1.3815,1.3895,1.3957,1.4044,1.4156,1.4249,1.432,1.4357,1.4381,1.4328,1.4381,1.4541,1.4569,1.4595,1.4596,1.4332,1.4332,1.4205,1.4203,1.4202,1.3417,1.3504,1.3561,1.3675,1.3727,1.3831,1.3929,1.3965,1.4014,1.411,1.4174,1.4251,1.4322,1.4453,1.4536,1.4549,1.4602,1.4565,1.4566,1.4582,1.4756,1.4756,1.4522,1.4522,1.4522,1.4522,1.4522,1.4522,1.3653,1.3661,1.378,1.3844,1.3924,1.4,1.4023,1.413,1.4188,1.4284,1.4373,1.443,1.4541,1.4681,1.4748,1.4795,1.4851,1.4837,1.4834,1.4828,1.4812,1.4989,1.4813,1.4814,1.4815,1.4816,1.4816,0,1.3852,1.3923,1.3983,1.407,1.4121,1.4195,1.4277,1.4294,1.4472,1.451,1.4575,1.4626,1.4727,1.4797,1.4892,1.4966,1.5075,1.5094,1.5086,1.5043,1.4995,1.5023,1.5304,1.5098,1.5101,1.5103,1.5104,1.5105,1.4098,1.4096,1.426,1.4291,1.4357,1.4403,1.4449,1.4606,1.4647,1.4771,1.477,1.4842,1.4907,1.4994,1.5117,1.5192,1.5245,1.5158,1.5257,1.5218,1.5246,1.5245,1.5247,1.5135,1.5131,1.5128,1.5125,0,1.4228,1.4367,1.4391,1.4554,1.4595,1.4584,1.4724,1.4738,1.484,1.4873,1.489,1.5048,1.5107,1.5246,1.534,1.541,1.5399,1.5448,1.5363,1.5381,1.5318,1.5322,1.5086,1.5064,1.5339,1.5336,1.5333,0,1.4492,1.4482,1.4691,1.4697,1.4693,1.4851,1.4843,1.4929,1.5027,1.5055,1.5202,1.5224,1.5398,1.544,1.5544,1.5559,1.5576,1.5631,1.5658,1.5617,1.561,1.564,1.5652,1.5718,1.5719,1.572,1.5721,0,1.4682,1.4781,1.4792,1.4837,1.5007,1.5009,1.508,1.519,1.5231,1.5308,1.5337,1.5413,1.5455,1.5512,1.5644,1.5706,1.5664,1.5777,1.5721,1.5717,1.5702,1.5701,1.5459,1.5722,1.5723,1.5723,1.5723,0,1.4915,1.499,1.4984,1.5132,1.5151,1.5157,1.5245,1.5282,1.5387,1.5453,1.5514,1.5627,1.565,1.5753,1.5787,1.5831,1.5864,1.5919,1.5917,1.5926,1.6037,1.5882,1.5638,1.5618,1.5938,1.594,1.5941,0,1.5096,1.5127,1.5262,1.5253,1.5286,1.5452,1.5462,1.5549,1.5639,1.5681,1.578,1.5824,1.5929,1.5962,1.5961,1.6064,1.6006,1.6076,1.6133,1.6133,1.6102,1.5879,1.5807,1.5676,1.5966,1.5963,1.5961,0,1.5252,1.5459,1.5447,1.5505,1.5646,1.5673,1.5684,1.5764,1.5784,1.5865,1.5879,1.5943,1.6027,1.6077,1.6176,1.6167,1.605,1.6257,1.6262,1.6216,1.5989,1.5922,1.59,1.6119,1.6116,1.6114,1.5981,0,1.5577,1.5609,1.5584,1.5703,1.5746,1.5746,1.5893,1.592,1.6013,1.6106,1.6127,1.6231,1.6308,1.6318,1.6406,1.6341,1.6373,1.646,1.6568,1.6419,1.638,1.6363,1.6616,1.6621,1.6624,1.6627,0,0,1.5715,1.5764,1.591,1.5926,1.5971,1.6141,1.6128,1.6191,1.6313,1.6341,1.6403,1.6507,1.6587,1.6596,1.6561,1.6591,1.6593,1.6637,1.6489,1.6473,1.6458,1.6413,1.6393,1.6633,1.6634,1.6635,1.6636,0,1.5865,1.5946,1.5931,1.6005,1.6117,1.6217,1.6214,1.6354,1.6413,1.6433,1.657,1.6599,1.6674,1.6743,1.6787,1.6642,1.6741,1.6654,1.6528,1.6518,1.6497,1.648,1.643,1.641,1.6644,1.6644,1.6644,0,1.6046,1.6151,1.6159,1.6268,1.6343,1.637,1.6523,1.6544,1.6567,1.6746,1.6762,1.6838,1.6941,1.6929,1.6928,1.6984,1.6869,1.6929,1.6911,1.6914,1.6911,1.6886,1.6864,1.7156,1.7157,1.7158,0,0,1.6154,1.6184,1.6343,1.6311,1.6349,1.6496,1.6524,1.6619,1.6709,1.6743,1.6843,1.6924,1.6972,1.6998,1.7048,1.7014,1.7048,1.6986,1.6962,1.6942,1.6932,1.6924,1.69,1.7163,1.7163,1.7163,0,0,1.6205,1.6389,1.6467,1.6448,1.653,1.6683,1.6658,1.6756,1.6816,1.6832,1.699,1.7019,1.701,1.7077,1.7122,1.7089,1.7194,1.7186,1.7045,1.7016,1.6993,1.6976,1.7288,0,0,0,0,0,1.6432,1.6367,1.6436,1.6455,1.6591,1.6645,1.6664,1.6794,1.6868,1.6845,1.6945,1.7049,1.7135,1.7179,1.7194,1.7142,1.7221,1.7211,1.7201,1.7012,1.698,1.6954,0,0,0,0,0,0,1.644,1.6463,1.6438,1.6585,1.6618,1.6649,1.6801,1.6836,1.6873,1.6893,1.7027,1.7054,1.7164,1.718,1.7191,1.7139,1.7285,1.7217,1.7208,1.72,1.7001,1.6975,1.6953,0,0,0,0,0,1.6448,1.6466,1.665,1.6588,1.6615,1.6774,1.6805,1.6835,1.6866,1.7018,1.7048,1.6961,1.7159,1.7178,1.7187,1.7131,1.7278,1.7282,1.7211,1.7204,1.7198,1.6989,0,0,0,0,0,0,1.6453,1.6493,1.6659,1.6672,1.6621,1.6775,1.6804,1.6833,1.6991,1.702,1.696,1.6974,1.7155,1.7171,1.7184,1.712,1.7272,1.7276,1.7278,1.7206,1.7201,1.7196,0,0,0,0,0,0,1.6484,1.6503,1.6666,1.6701,1.672,1.6775,1.6801,1.6826,1.6991,1.6925,1.6941,1.6964,1.7134,1.7164,1.7176,1.721,1.7268,1.7271,1.7274,1.7276,1.7202,1.7197,0,0,0,0,0,0,1.6495,1.6511,1.6699,1.6713,1.673,1.6889,1.68,1.6932,1.7023,1.6915,1.7034,1.704,1.7124,1.7139,1.7169,1.7197,1.7207,1.7268,1.727,1.7272,1.7273,0,0,0,0,0,0,0,1.6503,1.6363,1.658,1.6722,1.6737,1.6796,1.6799,1.6803,1.7024,1.7029,1.7033,1.7038,1.7246,1.725,1.7254,1.7187,0,0,1.7267,1.7269,0,0,0,0,0,0,0,0,1.636,1.6362,1.658,1.6583,1.6586,1.6796,1.6799,1.6802,1.7025,1.7028,1.7032,1.7036,1.7247,1.7251,1.7254,0,0,0,0,0,0,0,0,0,0,0,0,0,0,0,1.6581,1.6583,0,1.6797,1.6799,1.6802,1.7025,1.7028,1.7031,1.7034,1.7248,1.7251,1.7254,0,0,0,0,0,0,0,0,0,0,0,0,0,0,0,0,0,0,0,0,0,0,0,0,0,0,0,0,0,0,0,0,0,0,0,0,0,0,0,0,0,0,0,0,0,0,0,0,0,0,0,0,0,0,0,0,0,0,0,0,0,0,0,0,0,0,0,0,0]}]]]